McGrath, AK

6:38 AM AKST on December 11, 2017 (GMT -0900)
McGrath

Weather History for PAMC - January, 2013

Change the Weather History Date:

Thursday, January 31, 2013

  Actual Average Record
Temperature  
Mean Temperature -2 °F -4 °F  
Max Temperature 12 °F 5 °F 40 °F (2007)
Min Temperature -15 °F -13 °F -59 °F (1947)
Degree Days  
Heating Degree Days 67 69  
Month to date heating degree days 1986 2213  
Since 1 July heating degree days 8743 8453  
Cooling Degree Days 0 0  
Month to date cooling degree days 0 0  
Year to date cooling degree days 0 0  
Moisture  
Dew Point -1 °F    
Average Humidity 0    
Maximum Humidity 0    
Minimum Humidity 0    
Precipitation  
Precipitation 0.04 in 0.03 in 0.35 in (1940)
Month to date precipitation 2.52 1.09  
Year to date precipitation 2.52 1.09  
Snow  
Snow 1.00 in 0.50 in 4.10 in (1988)
Month to date snowfall 22.1 15.7  
Since 1 July snowfall 55.8 66.9  
Snow Depth 39.00 in    
Sea Level Pressure  
Sea Level Pressure 29.92 in    
Wind  
Wind Speed 0 mph (West)    
Max Wind Speed 5 mph    
Max Gust Speed 7 mph    
Visibility 7 miles    
Events Snow    
T = Trace of Precipitation, MM = Missing Value Source: NWS Daily Summary

Daily Weather History Graph

Daily Weather History Graph

Search for Another Location

Airport or City:

Trip Planner

Search our weather history database for the weather conditions in past years. The results will help you decide how hot, cold, wet, or windy it might be!

Date:

Astronomy

Jan. 31, 2013 Rise Set
Actual Time 9:55 AM AKST 5:17 PM AKST
Civil Twilight 9:01 AM AKST 6:11 PM AKST
Nautical Twilight 8:05 AM AKST 7:07 PM AKST
Astronomical Twilight 7:11 AM AKST 8:01 PM AKST
Moon No Moon Rise 10:08 AM AKST (1/31)
Length of Visible Light 9h 09m
Length of Day
7h 22m
Waning Gibbous, 78% of the Moon is Illuminated
Jan 31
Waning Gibbous
Feb 3
Last Quarter
Feb 9
New
Feb 17
First Quarter
Feb 25
Full

Hourly Weather History & Observations

Time (AKST) Temp. Windchill Dew Point Humidity Pressure Visibility Wind Dir Wind Speed Gust Speed Precip Events Conditions
12:15 AM 5.0 °F - 1.4 °F 85% 29.71 in 1.8 mi Calm Calm - 0.00 in Snow Light Snow
12:38 AM 5.0 °F - 1.4 °F 85% 29.72 in 1.5 mi Calm Calm - 0.00 in Snow Light Snow
12:53 AM 5.0 °F - 1.9 °F 87% 29.76 in 1.2 mi Calm Calm - 0.01 in Snow Light Snow
1:10 AM 5.0 °F - 1.4 °F 85% 29.73 in 3.0 mi Calm Calm - 0.00 in Snow Light Snow
1:21 AM 6.8 °F - 1.4 °F 79% 29.73 in 6.0 mi Calm Calm - 0.00 in Snow Light Snow
1:53 AM 6.1 °F - 1.0 °F 80% 29.78 in 6.0 mi Calm Calm - 0.00 in Snow Light Snow
2:53 AM 6.1 °F - 1.0 °F 80% 29.81 in 7.0 mi Calm Calm - 0.00 in Snow Light Snow
3:53 AM 7.0 °F - 1.0 °F 77% 29.83 in 6.0 mi Calm Calm - 0.00 in Snow Light Snow
4:53 AM 7.0 °F - 1.0 °F 77% 29.84 in 9.0 mi Calm Calm - 0.00 in Snow Light Snow
5:40 AM 6.8 °F - 1.4 °F 79% 29.81 in 2.0 mi Calm Calm - 0.01 in Snow Light Snow
5:53 AM 7.0 °F - 1.9 °F 80% 29.85 in 1.8 mi Calm Calm - 0.01 in Snow Light Snow
6:22 AM 6.8 °F - 3.2 °F 85% 29.82 in 2.5 mi Calm Calm - 0.01 in Snow Light Snow
6:34 AM 6.8 °F - 1.4 °F 79% 29.83 in 3.0 mi Calm Calm - 0.01 in Snow Light Snow
6:41 AM 6.8 °F - 1.4 °F 79% 29.83 in 3.0 mi Calm Calm - 0.01 in Snow Light Snow
6:53 AM 7.0 °F - 3.0 °F 84% 29.87 in 3.0 mi Calm Calm - 0.01 in Snow Light Snow
7:53 AM 7.0 °F - 3.0 °F 84% 29.88 in 10.0 mi Calm Calm - 0.01 in   Overcast
8:53 AM 8.1 °F - 3.0 °F 80% 29.91 in 9.0 mi Calm Calm - 0.00 in Snow Light Snow
9:53 AM 8.1 °F - 3.9 °F 83% 29.93 in 5.0 mi Calm Calm - 0.00 in Snow Light Snow
10:07 AM 8.6 °F - 3.2 °F 79% 29.90 in 4.0 mi Calm Calm - 0.00 in Snow Light Snow
10:53 AM 8.1 °F - 3.9 °F 83% 29.96 in 9.0 mi Calm Calm - 0.00 in Snow Light Snow
11:53 AM 9.0 °F - 3.9 °F 80% 29.97 in 9.0 mi Calm Calm - 0.00 in Snow Light Snow
12:53 PM 10.0 °F - 5.0 °F 80% 30.00 in 10.0 mi Calm Calm - 0.00 in   Mostly Cloudy
1:53 PM 10.9 °F - 5.0 °F 77% 30.02 in 9.0 mi Calm Calm - 0.00 in Snow Light Snow
2:53 PM 10.9 °F - 6.1 °F 81% 30.03 in 9.0 mi Calm Calm - 0.00 in   Mostly Cloudy
3:53 PM 10.9 °F - 6.1 °F 81% 30.04 in 10.0 mi Calm Calm - N/A   Mostly Cloudy
4:53 PM 8.1 °F - 3.9 °F 83% 30.06 in 10.0 mi Calm Calm - N/A   Clear
5:53 PM -0.0 °F - -2.9 °F 88% 30.06 in 10.0 mi Calm Calm - N/A   Clear
6:53 PM -7.1 °F -15.9 °F -11.0 °F 83% 30.07 in 10.0 mi West 3.5 mph - N/A   Clear
7:53 PM -9.0 °F -18.2 °F -14.1 °F 79% 30.09 in 10.0 mi West 3.5 mph - N/A   Clear
8:53 PM -8.0 °F - -11.9 °F 83% 30.10 in 10.0 mi Calm Calm - N/A   Clear
9:53 PM -13.0 °F - -18.9 °F 75% 30.11 in 10.0 mi Calm Calm - N/A   Clear
10:53 PM -13.0 °F - -18.9 °F 75% 30.12 in 10.0 mi Calm Calm - N/A   Clear
11:53 PM -15.0 °F - -20.0 °F 78% 30.14 in 10.0 mi Calm Calm - N/A   Clear